Content
SEND FEEDBACK

Daily
Averages
Monthly
Summary
United States of America

HAZELWOOD, MISSOURI


Home > North America > United States > Missouri
Elevation: 570 feet     Latitude: 38 45N     Longitude: 090 22W

WEATHER
 
SELECT A DAY
Number of Records: 199,638;   Date Range: 1/1/95 - 10/20/14
 
SHARE

PRINT THIS DATA

[ ← Previous Day ]
WEATHER ALMANAC - MAY 2, 2013
[ Next Day → ]
[ °C ]   °F
Weather ElementAverageHighLow
Temperature55.4 °F69.1 °F (1:54 pm)44.1 °F (10:54 pm)
Dewpoint49.8 °F59 °F (7:54 am)39.2 °F (11:20 pm)
Humidity82.6 %100 % (3:46 am)57 % (2:54 pm)
Barometer30.12 in30.18 in (8:54 pm)30.04 in (2:54 am)
Wind Speed8.3 mph16.1 mph (2:54 pm)
Wind Gust23 mph (2:54 pm)
Weather ElementAverage
Visibility7.5 mi
Wind DirectionWSW (239.7 °)

Weather ElementTotal
Precipitation0.69 in
Heating Degree Days8.4 (Base 65)
Growing Degree Days6.6 (Base 50)
Averaged from 31 records on May 2, 2013
WEATHER CONDITIONS BREAKOUT
WIND DIRECTION BREAKOUT
WEATHER BY HOUR - MAY 2, 2013
[ °C ]   °F
Local TimeTemperatureDewpointHumidityBarometerVisibilityWind DirectionWind SpeedGust SpeedPrecipitationEventsConditions
1:54 AM60.1 °F57.0 °F90 %30.05 in10.0 miCalmMostly Cloudy
2:54 AM59.0 °F57.0 °F93 %30.04 in7.0 miCalmClear
3:46 AM57.2 °F57.2 °F100 %30.06 in1.5 miCalmScattered Clouds
3:54 AM57.9 °F55.9 °F93 %30.05 in1.0 miCalmMostly Cloudy
3:59 AM57.2 °F55.4 °F94 %30.07 in3.0 miCalmMostly Cloudy
4:54 AM57.9 °F55.9 °F93 %30.05 in4.0 miCalmOvercast
5:54 AM57.9 °F57.0 °F97 %30.07 in10.0 miCalmMostly Cloudy
6:54 AM60.1 °F57.9 °F93 %30.10 in10.0 miSSW (200°)3.5 mphMostly Cloudy
7:54 AM63.0 °F59.0 °F87 %30.12 in10.0 miNW (320°)8.1 mph0.00 inMostly Cloudy
8:54 AM61.0 °F53.1 °F75 %30.16 in10.0 miNNW (340°)8.1 mphMostly Cloudy
9:54 AM61.0 °F51.1 °F70 %30.15 in10.0 miNNW (330°)10.4 mphScattered Clouds
10:54 AM64.0 °F51.1 °F63 %30.14 in10.0 miNNW (330°)9.2 mphPartly Cloudy
11:54 AM64.9 °F52.0 °F63 %30.13 in10.0 miWNW (300°)10.4 mphScattered Clouds
12:54 PM66.9 °F53.1 °F61 %30.13 in10.0 miNNW (330°)5.8 mphScattered Clouds
1:54 PM69.1 °F54.0 °F58 %30.12 in10.0 miNW (320°)12.7 mphPartly Cloudy
2:54 PM66.9 °F51.1 °F57 %30.11 in10.0 miNW (310°)16.1 mph23.0 mphPartly Cloudy
3:54 PM63.0 °F48.9 °F60 %30.12 in10.0 miNW (310°)16.1 mph20.7 mphScattered Clouds
4:54 PM57.9 °F50.0 °F75 %30.12 in4.0 miWNW (290°)12.7 mph0.02 inRainRain
5:54 PM53.1 °F48.0 °F83 %30.13 in4.0 miNW (310°)12.7 mph0.03 inRainLight Rain
6:29 PM51.8 °F48.2 °F88 %30.14 in9.0 miWNW (300°)11.5 mph0.00 inOvercast
6:54 PM51.1 °F46.9 °F86 %30.14 in8.0 miWNW (300°)8.1 mph0.00 inRainLight Rain
7:21 PM50.0 °F46.4 °F87 %30.15 in9.0 miWNW (300°)13.8 mph0.00 inRainLight Rain
7:54 PM48.0 °F45.0 °F89 %30.15 in6.0 miWNW (300°)15.0 mph0.06 inRainLight Rain
8:54 PM46.0 °F43.0 °F89 %30.18 in5.0 miWNW (300°)11.5 mph17.3 mph0.10 inRainRain
9:50 PM44.6 °F42.8 °F93 %30.17 in4.0 miNW (320°)12.7 mph0.15 inRainRain
9:51 PM45.0 °F42.1 °F90 %30.17 in4.0 miNW (320°)11.5 mph0.15 inRainRain
10:07 PM44.6 °F42.8 °F93 %30.16 in6.0 miNW (310°)9.2 mph0.03 inRainRain
10:32 PM44.6 °F41.0 °F87 %30.15 in6.0 miNW (320°)9.2 mph0.07 inRainLight Rain
10:54 PM44.1 °F41.0 °F89 %30.14 in10.0 miNW (310°)10.4 mph0.08 inRainLight Rain
11:20 PM44.6 °F39.2 °F81 %30.13 in10.0 miNW (320°)9.2 mph0.00 inRainLight Rain
11:54 PM44.1 °F39.9 °F85 %30.13 in10.0 miNNW (340°)9.2 mph0.00 inRainLight Rain
Hourly data recorded from KSUS, located miles away from Hazelwood, Missouri







STORIES FROM OUR PARTNERS